Location: Domont
(49.0278°N, 2.3264°E)
Time: 02:24:15
(UTC+00:00)

Orbus 7S? - Pass Details

Date: 03 June 2022
Orbit: 340 x 6374 km, 56.9° (Epoch: 04 July)

Event Time Altitude Azimuth Distance (km) Brightness Sun altitude
Exits shadow 21:18:49 10° 167° (SSE) 3,888 7.0 -11.1°
Reaches altitude 10° 21:18:52 10° 167° (SSE) 3,880 7.0 -11.1°
Maximum altitude 21:28:47 38° 103° (ESE) 3,837 7.2 -12.0°
Drops below altitude 10° 21:51:12 10° 48° (NE) 8,642 9.5 -13.9°
Sets 22:00:19 0° 44° (NE) 10,417 10.1 -14.6°
